| time (UTC) | temp F | wind direction | speed MPH | gust MPH | rain 1hr in | rain 24hr in | rain mn in | humidity % | barometer mb |
| 20260507231546 | 59 | 198 | 2.0 | 3.0 | 0.00 | 0.00 | 0.00 | 64 | 1012.8 |
| 20260507230051 | 59 | 198 | 1.0 | 3.0 | 0.00 | 0.00 | 0.00 | 64 | 1012.8 |
| 20260507224545 | 60 | 198 | 1.0 | 3.0 | 0.00 | 0.00 | 0.00 | 64 | 1013.3 |
| 20260507223043 | 60 | 198 | 4.0 | 6.0 | 0.00 | 0.00 | 0.00 | 64 | 1013.7 |
| 20260507221548 | 61 | 198 | 2.0 | 3.0 | 0.00 | 0.00 | 0.00 | 64 | 1013.3 |
| 20260507220051 | 61 | 198 | 1.0 | 2.0 | 0.00 | 0.00 | 0.00 | 64 | 1013.5 |
| 20260507214547 | 61 | 198 | 0.0 | 3.0 | 0.00 | 0.00 | 0.00 | 64 | 1013.4 |
| 20260507213053 | 61 | 198 | 0.0 | 3.0 | 0.00 | 0.00 | 0.00 | 64 | 1013.4 |
| 20260507211554 | 61 | 198 | 1.0 | 2.0 | 0.00 | 0.00 | 0.00 | 64 | 1013.2 |
| 20260507210050 | 62 | 198 | 2.0 | 4.0 | 0.00 | 0.00 | 0.00 | 64 | 1013.2 |
| 20260507204548 | 62 | 198 | 1.0 | 4.0 | 0.00 | 0.00 | 0.00 | 64 | 1013.0 |
| 20260507203044 | 63 | 198 | 2.0 | 7.0 | 0.00 | 0.00 | 0.00 | 64 | 1012.9 |
| 20260507201552 | 63 | 198 | 3.0 | 6.0 | 0.00 | 0.00 | 0.00 | 64 | 1012.9 |
| 20260507200046 | 63 | 198 | 3.0 | 7.0 | 0.00 | 0.00 | 0.00 | 64 | 1012.7 |
| 20260507194548 | 63 | 198 | 4.0 | 9.0 | 0.00 | 0.00 | 0.00 | 63 | 1012.5 |
| 20260507193049 | 63 | 198 | 5.0 | 9.0 | 0.00 | 0.00 | 0.00 | 63 | 1012.3 |
| 20260507191546 | 63 | 198 | 6.0 | 12.0 | 0.00 | 0.00 | 0.00 | 63 | 1012.1 |
| 20260507190044 | 64 | 198 | 6.0 | 13.0 | 0.00 | 0.00 | 0.00 | 62 | 1012.0 |
| 20260507184549 | 64 | 199 | 4.0 | 10.0 | 0.00 | 0.00 | 0.00 | 62 | 1011.7 |
| 20260507183055 | 65 | 199 | 5.0 | 12.0 | 0.00 | 0.00 | 0.00 | 62 | 1011.5 |
| 20260507181546 | 66 | 200 | 4.0 | 9.0 | 0.00 | 0.00 | 0.00 | 62 | 1011.2 |
| 20260507180055 | 67 | 200 | 4.0 | 9.0 | 0.00 | 0.00 | 0.00 | 62 | 1011.3 |
| 20260507174546 | 68 | 200 | 5.0 | 10.0 | 0.00 | 0.00 | 0.00 | 63 | 1011.2 |
| 20260507173056 | 68 | 200 | 4.0 | 9.0 | 0.00 | 0.00 | 0.00 | 63 | 1011.3 |
| 20260507171552 | 68 | 200 | 6.0 | 15.0 | 0.00 | 0.00 | 0.00 | 63 | 1011.4 |
| 20260507170055 | 68 | 200 | 8.0 | 13.0 | 0.00 | 0.00 | 0.00 | 63 | 1011.4 |
| 20260507164544 | 68 | 200 | 10.0 | 16.0 | 0.00 | 0.00 | 0.00 | 63 | 1011.5 |
| 20260507163048 | 67 | 195 | 10.0 | 15.0 | 0.00 | 0.00 | 0.00 | 63 | 1011.5 |
| 20260507161551 | 68 | 181 | 8.0 | 17.0 | 0.00 | 0.00 | 0.00 | 63 | 1011.5 |
| 20260507160053 | 68 | 177 | 10.0 | 19.0 | 0.00 | 0.00 | 0.00 | 63 | 1011.4 |
| 20260507154548 | 68 | 182 | 9.0 | 20.0 | 0.00 | 0.00 | 0.00 | 63 | 1011.4 |
| 20260507153102 | 68 | 167 | 8.0 | 15.0 | 0.00 | 0.00 | 0.00 | 63 | 1011.4 |
| 20260507151542 | 68 | 159 | 7.0 | 14.0 | 0.00 | 0.00 | 0.00 | 63 | 1011.6 |
| 20260507150053 | 68 | 151 | 9.0 | 15.0 | 0.00 | 0.00 | 0.00 | 63 | 1011.7 |
| 20260507144545 | 69 | 153 | 8.0 | 13.0 | 0.00 | 0.00 | 0.00 | 63 | 1011.9 |
| 20260507143057 | 69 | 153 | 6.0 | 12.0 | 0.00 | 0.00 | 0.00 | 63 | 1011.9 |
| 20260507141548 | 69 | 153 | 8.0 | 11.0 | 0.00 | 0.00 | 0.00 | 63 | 1012.1 |
| 20260507140046 | 68 | 151 | 5.0 | 13.0 | 0.00 | 0.00 | 0.00 | 63 | 1012.0 |
| 20260507134541 | 69 | 150 | 8.0 | 13.0 | 0.00 | 0.00 | 0.00 | 63 | 1012.3 |
| 20260507133049 | 69 | 150 | 8.0 | 14.0 | 0.00 | 0.00 | 0.00 | 64 | 1012.3 |
| 20260507131549 | 69 | 148 | 7.0 | 12.0 | 0.00 | 0.00 | 0.00 | 64 | 1012.4 |
| 20260507130100 | 69 | 147 | 6.0 | 13.0 | 0.00 | 0.00 | 0.00 | 64 | 1012.6 |
| 20260507124552 | 68 | 146 | 7.0 | 14.0 | 0.00 | 0.00 | 0.00 | 64 | 1012.5 |
| 20260507123049 | 68 | 145 | 5.0 | 14.0 | 0.00 | 0.00 | 0.00 | 65 | 1012.9 |
| 20260507121554 | 68 | 140 | 6.0 | 14.0 | 0.00 | 0.00 | 0.00 | 65 | 1013.2 |
| 20260507120047 | 67 | 131 | 6.0 | 15.0 | 0.00 | 0.00 | 0.00 | 65 | 1013.3 |
| 20260507114545 | 67 | 146 | 7.0 | 14.0 | 0.00 | 0.00 | 0.00 | 65 | 1013.4 |
| 20260507113052 | 67 | 152 | 5.0 | 13.0 | 0.00 | 0.00 | 0.00 | 66 | 1013.4 |
| 20260507111544 | 66 | 143 | 10.0 | 16.0 | 0.00 | 0.00 | 0.00 | 66 | 1013.2 |
| 20260507110056 | 67 | 103 | 9.0 | 15.0 | 0.00 | 0.00 | 0.00 | 66 | 1013.2 |
| 20260507104555 | 66 | 101 | 8.0 | 14.0 | 0.00 | 0.00 | 0.00 | 66 | 1013.1 |
| 20260507103112 | 65 | 98 | 7.0 | 12.0 | 0.00 | 0.00 | 0.00 | 67 | 1013.1 |
| 20260507101545 | 65 | 98 | 7.0 | 13.0 | 0.00 | 0.00 | 0.00 | 67 | 1013.3 |
| 20260507094553 | 64 | 98 | 5.0 | 11.0 | 0.00 | 0.00 | 0.00 | 67 | 1013.2 |
| 20260507093045 | 64 | 98 | 7.0 | 12.0 | 0.00 | 0.00 | 0.00 | 67 | 1013.3 |
| 20260507091544 | 63 | 98 | 6.0 | 12.0 | 0.00 | 0.00 | 0.00 | 67 | 1013.2 |
| 20260507090038 | 63 | 98 | 5.0 | 9.0 | 0.00 | 0.00 | 0.00 | 67 | 1013.3 |
| 20260507084548 | 63 | 98 | 3.0 | 6.0 | 0.00 | 0.00 | 0.00 | 67 | 1013.1 |
| 20260507083045 | 63 | 98 | 2.0 | 5.0 | 0.00 | 0.00 | 0.00 | 67 | 1012.9 |
| 20260507081544 | 64 | 98 | 2.0 | 4.0 | 0.00 | 0.00 | 0.00 | 68 | 1012.8 |
| 20260507080046 | 63 | 98 | 1.0 | 4.0 | 0.00 | 0.00 | 0.00 | 68 | 1012.7 |
| 20260507074540 | 63 | 98 | 2.0 | 3.0 | 0.00 | 0.00 | 0.00 | 68 | 1012.6 |
| 20260507073049 | 61 | 98 | 0.0 | 3.0 | 0.00 | 0.00 | 0.00 | 68 | 1012.5 |
| 20260507071549 | 60 | 98 | 1.0 | 3.0 | 0.00 | 0.00 | 0.00 | 68 | 1012.3 |
| 20260507064552 | 58 | 98 | 2.0 | 4.0 | 0.00 | 0.00 | 0.00 | 68 | 1012.1 |
| 20260507063044 | 57 | 98 | 0.0 | 1.0 | 0.00 | 0.00 | 0.00 | 67 | 1011.9 |
| 20260507061552 | 55 | 98 | 1.0 | 3.0 | 0.00 | 0.00 | 0.00 | 67 | 1012.0 |
| 20260507060044 | 57 | 98 | 2.0 | 3.0 | 0.00 | 0.00 | 0.00 | 67 | 1012.0 |
| 20260507054559 | 57 | 0 | 0.0 | 0.0 | 0.00 | 0.00 | 0.00 | 67 | 1011.6 |
| 20260507053059 | 57 | 98 | 1.0 | 2.0 | 0.00 | 0.00 | 0.00 | 67 | 1011.5 |
| 20260507051551 | 57 | 98 | 1.0 | 4.0 | 0.00 | 0.00 | 0.00 | 67 | 1011.4 |
| 20260507050050 | 58 | 98 | 1.0 | 3.0 | 0.00 | 0.00 | 0.00 | 67 | 1011.4 |
| 20260507044552 | 58 | 98 | 3.0 | 7.0 | 0.00 | 0.00 | 0.00 | 67 | 1011.2 |
| 20260507043039 | 58 | 98 | 3.0 | 6.0 | 0.00 | 0.00 | 0.00 | 67 | 1011.3 |
| 20260507041558 | 58 | 98 | 2.0 | 4.0 | 0.00 | 0.00 | 0.00 | 67 | 1011.4 |
| 20260507040045 | 58 | 98 | 1.0 | 4.0 | 0.00 | 0.00 | 0.00 | 67 | 1011.3 |
| 20260507034544 | 58 | 98 | 2.0 | 5.0 | 0.00 | 0.00 | 0.00 | 67 | 1011.3 |
| 20260507033053 | 58 | 98 | 3.0 | 8.0 | 0.00 | 0.00 | 0.00 | 67 | 1011.3 |
| 20260507031548 | 59 | 98 | 4.0 | 13.0 | 0.00 | 0.00 | 0.00 | 67 | 1011.1 |
| 20260507030052 | 59 | 98 | 4.0 | 11.0 | 0.00 | 0.00 | 0.00 | 67 | 1011.0 |
| 20260507024549 | 59 | 98 | 6.0 | 11.0 | 0.00 | 0.00 | 0.00 | 67 | 1011.0 |
| 20260507023051 | 59 | 98 | 4.0 | 9.0 | 0.00 | 0.00 | 0.00 | 67 | 1011.2 |
| 20260507021550 | 59 | 98 | 5.0 | 10.0 | 0.00 | 0.00 | 0.00 | 67 | 1011.1 |
| 20260507020106 | 59 | 98 | 4.0 | 13.0 | 0.00 | 0.00 | 0.00 | 67 | 1011.1 |
| 20260507014606 | 60 | 98 | 6.0 | 15.0 | 0.00 | 0.00 | 0.00 | 67 | 1011.1 |
| 20260507013056 | 60 | 96 | 8.0 | 16.0 | 0.00 | 0.00 | 0.00 | 67 | 1011.1 |
| 20260507011555 | 60 | 99 | 8.0 | 18.0 | 0.00 | 0.00 | 0.00 | 67 | 1011.2 |
| 20260507010046 | 60 | 98 | 7.0 | 17.0 | 0.00 | 0.00 | 0.00 | 67 | 1011.3 |
| 20260507004549 | 61 | 96 | 8.0 | 19.0 | 0.00 | 0.00 | 0.00 | 67 | 1011.4 |
| 20260507003038 | 61 | 94 | 8.0 | 17.0 | 0.00 | 0.00 | 0.00 | 67 | 1011.6 |
| 20260507001558 | 61 | 89 | 8.0 | 15.0 | 0.00 | 0.00 | 0.00 | 67 | 1011.6 |
| 20260507000057 | 61 | 87 | 9.0 | 18.0 | 0.00 | 0.00 | 0.00 | 67 | 1011.6 |
| 20260506234604 | 61 | 86 | 6.0 | 13.0 | 0.00 | 0.00 | 0.00 | 67 | 1011.7 |
| 20260506233049 | 61 | 86 | 8.0 | 19.0 | 0.00 | 0.00 | 0.00 | 67 | 1011.7 |